Home   Weather   Bernau bei Berlin   Past weeks

Flag for Germany Past Weather in Bernau bei Berlin, Brandenburg, Germany — Yesterday and Last 2 Weeks

Now
30 °F

Ice fog.


Feels Like: 27 °F
Forecast: 26 / 32 °F
Wind: 3 mph from Southwest

Location: Berlin-Tegel

Current Time: Dec 4, 2016 at 5:36:43 pm

Latest Report: Dec 4, 2016 at 5:20 pm


Visibility: 0 mi

Pressure: 30.45 "Hg

Humidity: 100%

Dew Point: 30 °F

Location of Bernau bei BerlinLocation

Past Weather in Bernau bei Berlin — Graph

°F

Bernau bei Berlin Temperature Yesterday

Maximum temperature yesterday: 37 °F (at 12:50 pm)
Minimum temperature yesterday: 21 °F (at 5:50 am)
Average temperature yesterday: 29 °F

High & Low Weather Summary for the Past Weeks

 TemperatureHumidityPressure
High55 °F (Nov 21, 11:50 am)100% (Nov 22, 11:50 pm)30.54 "Hg (Nov 22, 11:50 pm)
Low19 °F (Nov 29, 1:20 am)54% (Nov 20, 7:20 pm)29.59 "Hg (Nov 20, 3:20 pm)
Average39 °F86%30.10 "Hg
* Reported Nov 19 4:20 pm — Dec 4 4:20 pm, Bernau bei Berlin, Weather by CustomWeather, © 2016

Note: Actual official high and low records may vary slightly from our data, if they occured in-between our weather recording intervals... More about our weather records

Advertising

Bernau bei Berlin Weather History for the Previous 24 Hours

Scroll right to see more
 ConditionsComfort  
Time TempWeatherWind HumidityBarometerVisibility
4:20 pm
Sun, Dec 4
30 °FIce fog.2 mph100%30.42 "Hg1 mi
3:50 pm30 °FIce fog.2 mph100%30.42 "Hg1 mi
3:20 pm30 °FIce fog.2 mph100%30.42 "Hg1 mi
2:50 pm30 °FIce fog.3 mph100%30.42 "Hg1 mi
2:20 pm30 °FIce fog.2 mph100%30.42 "Hg1 mi
1:50 pm30 °FIce fog.5 mph100%30.42 "Hg1 mi
1:20 pm30 °FIce fog.5 mph100%30.42 "Hg1 mi
12:50 pm30 °FIce fog.3 mph100%30.42 "Hg1 mi
12:20 pm30 °FIce fog.5 mph100%30.42 "Hg1 mi
11:50 am30 °FIce fog.5 mph100%30.42 "Hg1 mi
11:20 am30 °FIce fog.3 mph100%30.42 "Hg1 mi
10:50 am28 °FIce fog.3 mph100%30.42 "Hg1 mi
10:20 am28 °FIce fog.3 mph100%30.42 "Hg1 mi
9:50 am28 °FIce fog.3 mph100%30.42 "Hg1 mi
9:20 am28 °FIce fog.5 mph100%30.42 "Hg1 mi
8:50 am28 °FIce fog.5 mph100%30.39 "Hg1 mi
8:20 am28 °FIce fog.3 mph100%30.39 "Hg1 mi
7:50 am28 °FIce fog.3 mph100%30.39 "Hg0 mi
7:20 am28 °FIce fog.3 mph100%30.39 "Hg0 mi
6:50 am28 °FIce fog.3 mph100%30.36 "Hg0 mi
6:20 am28 °FIce fog.5 mph100%30.36 "Hg0 mi
5:50 am28 °FIce fog.6 mph100%30.36 "Hg0 mi
5:20 am28 °FIce fog.6 mph100%30.36 "Hg0 mi
4:50 am28 °FIce fog.7 mph100%30.36 "Hg0 mi
4:20 am28 °FIce fog.6 mph100%30.36 "Hg0 mi
3:50 am27 °FIce fog.3 mph100%30.36 "Hg1 mi
3:20 am25 °FIce fog.3 mph100%30.36 "Hg1 mi
2:50 am25 °FIce fog.2 mph100%30.36 "Hg0 mi
2:20 am23 °FIce fog.3 mph100%30.36 "Hg1 mi
1:50 am25 °FIce fog.3 mph100%30.36 "Hg1 mi
1:20 am25 °FIce fog.3 mph100%30.36 "Hg1 mi
12:50 am25 °FIce fog.5 mph100%30.36 "Hg1 mi
12:20 am25 °FIce fog.3 mph100%30.33 "Hg1 mi
11:50 pm
Sat, Dec 3
27 °FIce fog.3 mph100%30.36 "Hg1 mi
11:20 pm27 °FChilly.5 mph100%30.36 "Hg6 mi
10:50 pm28 °FFog.3 mph100%30.36 "HgN/A
10:20 pm28 °FFog.3 mph100%30.33 "HgN/A
9:50 pm28 °FFog.5 mph100%30.33 "HgN/A
9:20 pm28 °FFog.3 mph100%30.33 "HgN/A
8:50 pm28 °FFog.3 mph100%30.33 "HgN/A
8:20 pm28 °FFog.2 mph100%30.33 "HgN/A
7:50 pm30 °FFog.2 mph93%30.33 "HgN/A
7:20 pm30 °FFog.1 mph93%30.33 "HgN/A
6:50 pm30 °FFog.1 mph93%30.33 "HgN/A
6:20 pm30 °FClear.1 mph93%30.33 "Hg10 mi
5:50 pm30 °FClear.1 mph100%30.30 "Hg10 mi
5:20 pm30 °FClear.2 mph93%30.30 "Hg10 mi
Weather by CustomWeather, © 2016

See weather overviewHow to use our weather pages